Date,TemperatureHighF,TemperatureAvgF,TemperatureLowF,DewpointHighF,DewpointAvgF,DewpointLowF,HumidityHigh,HumidityAvg,HumidityLow,PressureMaxIn,PressureMinIn,WindSpeedMaxMPH,WindSpeedAvgMPH,GustSpeedMaxMPH,PrecipitationSumIn
2013-1-1,39.9,37.0,29.3,39.4,35.8,25.7,99,95,86,30.15,29.97,11,1,11,0.06
2013-1-2,35.5,29.4,25.1,25.7,22.5,19.4,87,76,52,30.24,30.13,5,0,5,0.01
2013-1-3,42.6,30.1,21.0,26.6,22.6,18.6,93,75,46,30.40,30.21,8,0,8,0.00
2013-1-4,45.8,31.7,21.0,32.2,23.4,18.1,95,74,45,30.46,30.35,12,0,12,0.00
2013-1-5,46.2,35.2,22.9,32.7,26.3,20.4,95,72,49,30.37,30.21,9,0,9,0.00
2013-1-6,49.2,37.5,25.7,37.9,30.6,21.2,95,77,50,30.35,30.15,13,1,13,0.00
2013-1-7,46.5,32.2,22.2,27.8,23.6,19.2,92,73,41,30.43,30.19,8,0,8,0.00
2013-1-8,56.2,42.8,26.9,38.3,32.4,22.7,91,69,46,30.27,30.15,9,1,9,0.00
2013-1-9,53.8,50.5,47.6,53.0,47.6,38.0,99,90,68,30.36,30.19,12,0,12,0.25
2013-1-10,66.6,58.7,49.9,63.4,57.2,49.1,100,95,83,30.32,29.84,25,4,25,0.51
2013-1-11,68.1,61.1,55.9,63.3,55.3,49.7,98,83,55,29.98,29.82,16,2,16,0.65
2013-1-12,70.1,67.1,63.1,66.8,64.3,61.7,99,91,82,29.92,29.71,14,3,14,0.00
2013-1-13,69.3,46.5,30.0,63.7,44.8,26.9,99,94,81,30.23,29.69,23,2,23,2.58
2013-1-14,30.9,28.9,26.4,26.9,23.5,21.7,88,80,73,30.39,30.21,14,2,14,0.00
2013-1-15,31.5,29.1,25.3,29.7,26.2,22.0,96,89,83,30.25,30.01,7,1,7,0.10
2013-1-16,32.5,31.2,30.1,31.2,30.1,29.1,96,96,95,30.13,30.01,4,0,4,0.01
2013-1-17,47.4,35.7,29.8,36.5,31.1,25.8,96,84,61,30.43,30.07,12,1,12,0.01
2013-1-18,50.2,35.7,23.0,31.4,26.0,21.0,96,71,40,30.54,30.31,7,0,7,0.00
2013-1-19,58.1,45.4,33.1,34.6,30.5,26.5,83,58,33,30.31,30.09,13,2,13,0.00
2013-1-20,53.6,43.0,32.7,35.8,28.6,19.1,89,59,37,30.23,30.11,8,1,8,0.00
2013-1-21,38.2,31.2,23.5,22.4,17.3,12.4,73,57,36,30.30,30.15,12,1,12,0.00
2013-1-22,32.1,26.8,20.8,16.5,9.8,4.0,74,49,35,30.42,30.27,5,0,5,0.00
2013-1-23,53.3,38.4,22.2,35.8,24.8,10.9,83,59,44,30.33,30.11,12,1,12,0.00
2013-1-24,36.6,32.8,27.9,31.4,16.7,9.4,88,53,37,30.44,30.18,14,2,14,0.00
2013-1-25,36.6,33.4,28.5,35.2,27.9,12.5,96,81,42,30.21,30.01,11,1,11,0.25
2013-1-26,48.9,35.7,25.6,35.9,28.1,23.6,97,76,45,30.32,30.21,6,0,6,0.00
2013-1-27,53.1,43.9,32.5,43.8,37.1,27.9,90,77,63,30.27,30.10,13,2,13,0.00
2013-1-28,64.2,56.9,50.4,56.6,50.0,39.2,91,78,61,30.13,30.01,13,3,13,0.05
2013-1-29,71.1,63.9,57.2,63.7,59.0,54.0,93,84,74,30.03,29.44,24,4,24,0.00
2013-1-30,71.1,49.2,34.6,63.6,43.5,22.4,100,81,61,29.91,29.40,26,4,30,1.95
2013-1-31,48.2,37.4,26.7,33.1,25.1,20.8,90,62,40,30.26,29.91,19,2,19,0.00
2013-2-1,30.0,23.4,15.7,21.0,11.4,6.9,79,60,42,30.50,30.25,9,0,9,0.01
2013-2-2,47.1,34.4,23.0,31.8,24.6,14.6,88,68,51,30.29,30.06,13,1,13,0.01
2013-2-3,49.8,39.8,29.3,33.8,28.3,23.9,91,65,40,30.12,29.98,19,1,19,0.00
2013-2-4,57.0,43.2,29.8,39.8,31.5,24.0,83,65,36,30.07,29.87,17,1,17,0.00
2013-2-5,60.5,47.2,36.8,43.7,39.4,32.5,88,76,40,30.02,29.87,11,0,11,0.00
2013-2-6,58.3,45.5,32.8,37.1,31.9,23.4,95,63,27,30.20,30.02,8,0,8,0.00
2013-2-7,67.4,55.6,44.6,50.6,41.9,29.4,85,60,50,30.04,29.82,13,1,13,0.03
2013-2-8,54.7,42.7,34.6,50.8,37.0,28.1,94,80,68,30.29,29.83,12,2,12,0.23
2013-2-9,51.7,41.9,32.4,32.8,29.4,26.6,80,63,44,30.33,30.03,13,2,13,0.00
2013-2-10,56.6,52.9,48.0,55.9,45.5,32.2,98,78,52,30.04,29.73,24,4,24,0.57
2013-2-11,56.5,47.5,37.8,55.9,35.0,26.4,98,64,34,30.12,29.85,11,1,12,0.00
2013-2-12,51.6,43.3,30.0,38.8,32.5,27.4,96,68,45,30.12,29.76,12,1,12,0.01
2013-2-13,43.5,39.7,36.0,38.5,36.6,33.6,96,89,75,29.95,29.71,8,1,8,0.22
2013-2-14,61.8,46.3,33.5,41.2,34.1,30.5,97,67,33,29.98,29.92,13,1,13,0.00
2013-2-15,51.7,41.7,30.0,37.0,29.0,17.3,87,62,34,30.15,29.97,11,1,11,0.00
2013-2-16,40.1,30.5,23.0,22.5,16.7,10.8,85,58,33,30.20,30.12,16,1,16,0.00
2013-2-17,49.1,35.1,20.6,23.4,19.1,14.1,81,55,27,30.24,30.07,11,1,11,0.00
2013-2-18,61.6,49.3,38.3,48.0,36.5,23.1,98,63,38,30.08,29.73,23,4,29,0.49
2013-2-19,48.6,39.7,28.5,48.1,27.5,17.5,98,64,38,30.22,29.81,17,2,17,0.07
2013-2-20,35.2,30.0,24.7,18.6,15.6,13.5,69,55,42,30.33,30.18,7,1,7,0.00
2013-2-21,41.5,34.5,28.2,41.0,26.7,17.8,98,74,48,30.21,29.76,18,3,18,0.27
2013-2-22,53.3,43.7,36.9,45.4,40.0,33.7,100,88,63,30.01,29.79,10,1,10,0.08
2013-2-23,50.2,37.9,27.9,34.0,29.0,25.0,92,72,44,30.00,29.91,11,0,11,0.29
2013-2-24,54.7,40.3,25.6,29.8,25.1,22.6,93,59,29,30.11,29.93,13,1,13,0.13
2013-2-25,62.0,50.5,38.5,47.3,31.0,21.0,86,49,23,29.95,29.34,25,5,25,0.03
2013-2-26,51.7,45.4,38.6,48.9,41.7,33.8,98,87,66,29.69,29.31,19,3,19,0.33
2013-2-27,40.6,38.6,37.5,34.1,31.6,28.6,82,76,69,29.88,29.68,16,2,16,0.00
2013-2-28,39.1,36.6,33.7,31.2,28.5,25.6,84,73,63,30.04,29.86,13,1,13,0.00
2013-3-1,37.5,34.3,32.2,33.0,31.0,29.5,96,88,76,30.07,30.00,12,1,12,0.04
2013-3-2,33.1,31.0,29.3,31.2,27.2,23.4,96,86,74,30.17,30.04,10,1,10,0.05
2013-3-3,43.5,33.9,22.2,28.0,21.1,16.0,83,61,33,30.17,30.04,12,1,12,0.00
2013-3-4,62.9,48.8,33.8,42.2,28.4,20.2,74,47,30,30.07,29.71,18,3,18,0.00
2013-3-5,58.3,45.3,34.1,53.0,39.4,19.0,98,81,53,30.04,29.68,19,2,19,0.75
2013-3-6,42.9,35.8,29.7,27.9,25.4,22.6,82,66,53,30.28,30.04,16,2,16,0.00
2013-3-7,47.6,35.9,24.8,31.6,26.9,22.3,93,71,48,30.37,30.27,8,1,8,0.00
2013-3-8,59.6,43.8,29.0,31.0,27.2,23.1,88,57,27,30.38,30.18,10,1,10,0.00
2013-3-9,68.1,54.6,44.2,37.5,31.4,26.9,68,43,26,30.19,29.90,13,2,13,0.00
2013-3-10,68.1,59.8,53.1,55.7,45.4,35.3,98,62,38,29.92,29.68,32,3,32,1.11
2013-3-11,53.1,43.0,37.9,52.5,38.7,30.8,99,85,67,29.98,29.73,18,2,18,0.95
2013-3-12,53.5,40.7,28.1,33.6,28.9,24.3,96,66,34,30.13,29.97,14,1,14,0.00
2013-3-13,45.1,38.7,29.8,30.8,24.5,18.9,71,57,39,30.37,30.11,14,2,14,0.00
2013-3-14,51.3,38.5,23.2,26.7,22.4,18.5,90,56,30,30.40,30.13,10,1,10,0.00
2013-3-15,77.6,59.7,41.2,49.5,40.2,23.2,72,50,32,30.13,29.80,19,2,19,0.00
2013-3-16,76.0,65.8,53.8,53.6,49.1,43.3,71,56,42,29.88,29.76,18,3,18,0.00
2013-3-17,53.8,49.3,44.2,48.3,44.3,39.4,95,83,68,29.90,29.65,9,2,10,0.00
2013-3-18,64.5,54.0,40.9,59.9,49.8,37.9,99,86,75,29.97,29.60,16,2,16,0.73
2013-3-19,55.6,44.4,32.9,38.3,27.5,17.1,98,59,25,30.15,29.96,8,1,9,0.17
2013-3-20,50.7,40.2,29.8,33.0,28.1,20.2,89,63,40,30.17,30.01,24,2,24,0.30
2013-3-21,45.5,35.4,21.8,23.3,17.8,11.0,85,52,27,30.07,29.92,12,1,12,0.00
2013-3-22,47.3,41.5,36.2,34.8,24.4,19.1,70,51,43,29.98,29.89,11,2,11,0.00
2013-3-23,55.0,47.6,42.6,47.0,39.6,31.8,94,74,64,29.92,29.66,13,2,13,0.17
2013-3-24,51.4,44.7,35.3,51.4,41.3,25.6,100,88,68,29.77,29.42,29,3,29,0.16
2013-3-25,37.0,34.4,32.7,29.5,26.3,24.1,87,72,62,30.14,29.76,22,4,22,0.04
2013-3-26,42.8,35.6,29.3,30.0,26.7,23.1,92,72,48,30.32,30.13,11,1,11,0.09
2013-3-27,55.0,39.9,24.4,31.1,26.2,21.4,93,62,31,30.38,30.26,11,1,11,0.00
2013-3-28,62.9,49.0,36.3,36.4,31.4,23.9,88,56,25,30.33,30.21,7,0,7,0.00
2013-3-29,50.1,48.4,47.1,46.9,40.8,33.1,96,76,56,30.24,30.14,11,1,11,0.10
2013-3-30,53.8,49.1,45.5,53.8,48.1,44.3,100,96,83,30.15,29.88,12,1,12,0.31
2013-3-31,60.5,54.4,45.1,55.1,51.4,41.8,100,90,67,29.91,29.82,8,0,8,0.08
2013-4-1,62.3,50.6,38.2,44.0,37.9,28.9,98,65,40,30.11,29.87,8,1,8,0.00
2013-4-2,47.6,42.8,38.9,32.8,27.9,20.1,70,56,36,30.24,30.10,8,0,8,0.00
2013-4-3,53.2,46.7,37.2,31.8,22.4,16.9,70,40,27,30.25,30.10,10,2,15,0.00
2013-4-4,47.7,43.3,39.1,44.6,38.1,23.2,98,85,39,30.11,29.96,5,0,5,0.59
2013-4-5,67.9,52.7,36.2,46.7,39.5,31.4,100,67,30,30.11,29.98,7,0,7,0.01
2013-4-6,74.9,60.2,40.1,44.7,39.7,34.5,93,52,26,30.07,29.87,14,2,14,0.00
2013-4-7,73.9,65.8,58.4,54.4,49.1,41.1,69,55,42,29.98,29.89,11,2,13,0.00
2013-4-8,78.1,68.4,58.0,58.5,54.1,48.8,78,61,43,29.94,29.83,13,2,20,0.00
2013-4-9,78.1,71.1,62.7,65.1,61.8,53.7,84,73,61,29.99,29.86,12,1,13,0.00
2013-4-10,83.8,76.0,68.4,64.3,61.3,58.8,81,61,46,29.93,29.67,12,2,12,0.00
2013-4-11,75.4,56.3,44.9,63.6,55.0,44.1,100,96,59,29.71,29.57,15,2,15,2.36
2013-4-12,64.5,53.1,37.8,45.4,41.0,36.3,99,67,42,29.96,29.71,17,1,17,0.25
2013-4-13,68.8,56.5,37.6,43.7,38.2,33.1,92,54,27,30.07,29.91,6,0,6,0.06
2013-4-14,72.5,61.5,47.0,52.4,47.1,42.7,86,61,39,29.91,29.74,22,3,22,0.00
2013-4-15,80.7,69.9,56.6,61.0,56.9,52.1,87,65,44,29.91,29.79,12,1,12,0.00
2013-4-16,81.8,72.4,65.2,69.4,65.4,59.8,91,79,63,30.03,29.89,15,1,15,0.00
2013-4-17,86.5,76.6,67.1,69.8,65.5,63.0,96,70,48,30.05,29.83,8,1,8,0.00
2013-4-18,82.0,73.8,50.2,67.0,63.1,49.1,96,70,50,29.83,29.55,22,3,22,1.49
2013-4-19,50.4,44.3,38.8,49.3,36.4,30.8,99,75,53,30.07,29.65,19,2,19,0.11
2013-4-20,62.7,49.2,32.8,40.5,34.3,28.5,95,61,28,30.26,30.07,11,0,11,0.00
2013-4-21,66.8,54.3,39.3,39.2,34.2,27.5,83,51,24,30.33,30.17,12,1,12,0.00
2013-4-22,73.9,60.3,42.8,49.3,42.8,38.0,88,55,30,30.19,30.00,13,1,13,0.00
2013-4-23,74.2,64.4,53.6,59.2,53.9,45.1,84,69,54,30.04,29.86,14,1,17,0.00
2013-4-24,66.9,50.3,38.3,60.8,44.9,34.8,96,82,66,30.25,29.78,11,1,11,0.72
2013-4-25,67.3,50.4,32.1,44.3,37.4,30.1,97,66,31,30.34,30.23,8,0,8,0.00
2013-4-26,58.0,50.0,43.3,50.0,46.6,40.5,98,88,69,30.41,30.19,14,1,14,0.37
2013-4-27,62.1,56.0,50.4,62.1,55.9,50.0,100,100,98,30.29,29.84,15,2,17,1.66
2013-4-28,64.5,59.7,54.7,61.6,56.7,53.1,100,91,69,29.92,29.84,9,0,9,0.01
2013-4-30,81.2,75.1,62.4,58.8,53.3,49.1,74,48,33,29.94,29.86,11,1,11,0.00
2013-5-1,79.4,68.8,56.6,63.9,56.9,52.1,90,68,46,30.03,29.92,14,2,14,0.00
2013-5-2,76.8,64.5,54.8,64.2,58.2,52.5,98,82,53,30.08,29.97,14,1,14,0.13
2013-5-3,72.7,59.3,42.5,61.7,53.5,41.5,98,83,57,29.98,29.72,22,3,22,1.19
2013-5-4,57.5,47.8,39.5,44.7,41.3,37.2,99,80,51,29.93,29.83,8,0,8,0.28
2013-5-5,62.0,51.7,43.1,49.6,45.4,41.2,97,80,57,29.88,29.78,9,0,9,0.00
2013-5-6,62.0,55.0,50.8,58.7,53.5,48.3,100,95,82,29.87,29.75,6,0,6,0.53
2013-5-7,70.4,61.1,53.2,59.2,56.1,52.1,99,85,56,29.95,29.86,5,0,5,0.00
2013-5-8,79.4,65.9,52.8,61.6,56.0,51.8,100,74,43,30.00,29.92,8,0,8,0.00
2013-5-9,80.1,70.2,59.9,63.9,60.2,56.9,92,72,50,30.03,29.90,11,0,11,0.00
2013-5-10,71.8,66.4,63.2,69.2,63.9,60.7,100,92,75,29.92,29.80,13,0,13,1.93
2013-5-11,69.3,62.3,56.7,63.6,55.2,44.7,97,79,52,30.04,29.88,9,0,9,0.17
2013-5-12,63.9,54.5,43.1,45.3,37.0,27.9,90,55,27,30.15,30.04,7,0,7,0.00
2013-5-13,70.8,56.0,38.9,49.8,40.9,33.1,96,62,28,30.22,30.09,7,0,7,0.00
2013-5-14,85.1,69.9,52.3,60.6,54.5,45.5,85,61,37,30.10,29.92,10,0,10,0.00
2013-5-15,83.4,73.1,61.8,58.5,53.1,43.1,80,52,25,30.03,29.89,11,0,11,0.00
2013-5-16,81.6,72.0,64.7,64.5,59.5,56.4,82,66,47,29.95,29.86,11,0,11,0.00
2013-5-17,68.4,66.6,64.5,67.7,64.2,57.0,100,92,70,29.94,29.84,13,2,13,0.43
2013-5-18,82.6,73.5,66.4,70.6,68.0,65.6,100,84,59,29.95,29.87,5,0,5,0.00
2013-5-19,85.3,77.7,70.3,74.2,70.2,68.0,99,79,59,29.91,29.83,11,0,11,0.00
2013-5-20,85.1,76.6,67.9,72.9,69.4,65.2,98,79,61,29.93,29.80,9,0,9,0.00
2013-5-21,78.3,69.8,64.7,70.5,66.0,62.5,99,88,67,29.94,29.75,14,1,14,1.50
2013-5-22,76.1,67.8,62.6,69.7,64.6,60.1,100,90,70,29.83,29.72,14,0,14,0.31
2013-5-23,76.5,67.6,60.2,62.7,58.6,54.4,98,75,51,30.06,29.82,11,0,11,0.00
2013-5-24,70.3,60.5,52.0,55.5,49.7,45.2,90,69,44,30.27,30.06,10,0,10,0.00
2013-5-25,76.3,61.9,46.4,55.0,49.0,39.8,98,67,28,30.28,30.10,11,1,11,0.00
2013-5-26,82.6,68.5,53.6,61.4,55.9,51.1,98,68,36,30.16,30.03,7,0,7,0.00
2013-5-27,83.4,71.0,56.0,65.4,60.6,53.6,97,72,41,30.06,29.90,9,0,9,0.00
2013-5-28,85.3,75.8,66.8,68.9,61.3,51.6,83,63,32,29.99,29.90,11,0,11,0.00
2013-5-29,85.9,75.3,62.0,69.0,64.0,57.2,92,70,41,30.03,29.90,13,1,13,0.00
2013-5-30,85.3,78.3,73.2,71.7,68.3,66.2,82,72,58,30.00,29.88,15,1,15,0.00
2013-5-31,81.2,75.3,66.4,74.1,69.7,64.9,99,83,73,29.96,29.82,13,1,13,0.95
2013-6-1,77.0,71.0,66.9,70.8,67.7,63.5,98,90,74,29.91,29.74,14,1,14,0.14
2013-6-2,78.6,69.9,63.1,68.4,64.8,60.0,100,85,56,29.90,29.84,9,0,9,0.02
2013-6-3,76.3,66.8,58.6,63.6,60.0,57.6,99,80,54,29.98,29.89,6,0,6,0.01
2013-6-4,79.8,68.4,56.7,65.3,59.9,55.6,97,77,47,29.99,29.90,9,0,9,0.01
2013-6-5,83.6,73.8,65.0,71.7,68.2,63.5,97,84,60,29.92,29.75,9,0,9,0.03
2013-6-6,79.6,72.5,66.8,71.5,68.7,65.9,99,88,68,29.78,29.69,7,0,7,0.21
2013-6-7,79.6,70.0,62.7,67.5,64.2,60.9,97,83,58,29.82,29.70,8,0,8,0.03
2013-6-8,80.5,69.0,57.8,65.4,60.5,53.3,100,77,42,29.95,29.81,7,0,7,0.04
2013-6-9,83.4,69.8,61.2,72.3,66.5,60.6,99,90,62,29.96,29.76,10,0,10,0.05
2013-6-10,85.7,74.6,65.6,72.7,68.3,65.3,100,83,57,29.86,29.78,12,0,12,0.14
2013-6-11,91.2,79.8,66.3,77.5,72.5,65.7,100,80,55,29.94,29.85,6,0,6,0.07
2013-6-12,91.2,82.5,74.2,77.6,74.3,72.1,96,77,59,29.98,29.81,7,0,7,0.04
2013-6-13,87.4,79.0,66.3,76.2,70.3,65.1,97,76,56,29.89,29.78,16,1,16,0.01
2013-6-14,81.4,70.6,59.0,65.5,61.4,58.0,100,76,48,29.99,29.87,6,0,6,0.01
2013-6-15,84.5,72.7,59.3,68.4,64.1,59.0,100,78,48,30.03,29.92,11,0,11,0.00
2013-6-16,84.9,75.8,66.6,74.1,70.4,65.7,99,85,60,29.98,29.89,4,0,6,0.01
2013-6-17,84.5,74.4,68.6,75.2,71.6,67.5,99,92,68,29.91,29.78,8,0,8,0.00
2013-6-18,81.4,72.9,67.1,71.8,68.6,65.6,100,88,61,29.90,29.74,11,0,11,1.33
2013-6-19,85.5,75.5,65.6,70.8,67.0,60.8,100,78,44,29.98,29.88,6,0,6,0.02
2013-6-20,87.6,77.1,65.5,73.7,68.9,64.3,100,79,47,30.08,29.98,6,0,6,0.01
2013-6-21,87.0,78.3,68.6,72.8,70.0,67.9,99,77,55,30.12,30.02,7,0,7,0.00
2013-6-22,87.0,75.9,68.4,73.2,69.4,66.2,98,82,53,30.10,29.99,8,0,9,0.01
2013-6-23,87.0,77.5,67.8,72.6,69.0,65.1,97,77,51,30.06,29.96,8,0,8,0.00
2013-6-24,89.3,79.3,70.6,74.9,71.9,68.7,99,80,53,30.08,29.96,6,0,8,0.00
2013-6-25,88.6,80.3,72.8,76.5,73.1,70.5,97,80,61,30.01,29.86,6,0,6,0.00
2013-6-26,88.6,81.0,71.3,75.8,72.8,70.4,97,77,61,29.91,29.73,7,0,7,0.00
2013-6-27,92.7,80.9,68.4,77.9,73.1,66.9,100,80,48,29.86,29.73,13,0,13,1.61
2013-6-28,87.0,77.0,70.1,74.2,70.2,62.1,98,81,52,29.77,29.61,10,0,10,0.00
2013-6-29,84.9,74.8,64.2,67.1,62.7,59.8,90,68,44,29.67,29.58,9,0,9,0.00
2013-6-30,79.2,68.4,60.5,67.2,63.6,59.9,99,85,61,29.75,29.63,5,0,5,0.00
2013-7-1,76.8,68.0,65.6,67.6,65.4,63.9,98,92,69,29.84,29.73,8,0,8,0.03
2013-7-2,78.6,70.0,65.0,68.2,65.1,62.3,98,85,65,29.97,29.82,9,0,9,0.01
2013-7-3,80.1,69.4,59.2,69.2,63.8,58.1,99,83,59,30.04,29.96,4,0,5,0.00
2013-7-4,76.7,70.7,65.2,71.7,67.8,64.7,100,91,78,30.01,29.94,14,1,14,0.00
2013-7-5,81.2,72.1,66.1,73.0,68.8,64.0,100,90,66,30.03,29.95,21,0,21,0.02
2013-7-7,84.9,78.4,72.5,73.1,71.9,68.9,99,82,61,30.04,29.97,7,0,7,0.00
2013-7-8,87.4,78.2,69.6,75.5,72.8,69.3,100,85,61,30.10,30.00,7,0,7,0.00
2013-7-9,90.3,80.8,70.6,77.6,74.5,70.6,100,83,60,30.06,29.93,6,0,6,0.00
2013-7-10,89.3,81.4,74.9,78.3,74.7,72.4,98,81,65,29.96,29.82,4,0,8,0.00
2013-7-11,88.0,78.2,66.6,77.0,71.7,63.1,100,82,57,29.91,29.85,5,0,5,0.00
2013-7-12,82.2,71.5,61.6,68.2,63.0,58.0,98,77,47,29.97,29.90,9,0,9,0.00
2013-7-13,81.8,71.2,59.0,67.2,63.2,58.7,100,78,49,29.98,29.92,6,0,11,0.00
2013-7-14,82.8,74.2,67.8,75.5,70.6,65.9,99,89,68,30.05,29.94,13,1,13,0.03
2013-7-15,86.5,78.3,71.8,74.5,72.2,69.2,100,83,61,30.16,30.05,13,2,13,0.00
2013-7-16,88.6,79.1,69.8,76.1,72.3,68.9,99,81,56,30.24,30.15,6,0,6,0.00
2013-7-17,91.0,81.4,71.5,77.4,74.6,70.9,99,82,57,30.24,30.11,6,0,6,0.00
2013-7-18,89.5,77.2,71.5,78.5,74.3,70.3,99,92,64,30.13,29.98,18,0,18,0.28
2013-7-19,89.3,77.8,68.1,77.2,72.2,67.8,100,85,58,30.01,29.87,8,0,8,0.00
2013-7-20,88.8,79.4,70.4,75.7,72.7,69.5,99,81,59,29.91,29.77,6,0,6,0.09
2013-7-21,87.6,76.0,70.9,77.3,72.8,70.2,100,91,65,29.90,29.82,5,0,8,0.20
2013-7-22,81.8,74.2,70.1,75.8,72.6,70.1,100,95,81,29.87,29.77,6,0,6,0.50
2013-7-23,82.6,75.7,69.4,74.5,72.3,68.5,99,90,70,29.87,29.75,13,0,13,0.25
2013-7-24,84.3,74.7,68.1,74.5,69.5,64.1,98,85,66,29.90,29.76,7,0,7,0.08
2013-7-25,80.1,70.5,61.3,66.7,63.9,60.6,99,81,54,30.00,29.88,4,0,4,0.00
2013-7-26,81.4,71.0,60.1,68.8,64.1,59.3,100,81,56,30.01,29.86,6,0,6,0.00
2013-7-27,82.6,74.0,67.8,70.2,67.3,64.2,98,81,60,29.93,29.82,10,0,10,0.01
2013-7-28,75.1,67.7,59.8,64.2,59.2,53.4,98,76,49,30.02,29.90,6,0,7,0.00
2013-7-29,76.0,67.9,59.6,66.7,62.4,59.0,100,84,61,30.13,30.01,9,0,9,0.00
2013-7-30,76.0,69.8,63.7,73.2,67.4,60.4,99,92,74,30.10,29.98,10,0,10,0.22
2013-7-31,84.0,73.8,70.6,78.8,72.8,70.0,100,97,80,29.99,29.87,8,0,8,0.87
2013-8-1,83.0,74.5,68.4,73.1,69.6,66.9,100,86,61,29.99,29.90,4,0,4,0.00
2013-8-2,83.6,73.8,62.6,70.0,66.0,60.7,100,79,47,29.98,29.90,5,0,7,0.00
2013-8-3,79.6,73.4,68.9,75.9,71.5,66.9,100,94,85,30.00,29.87,8,0,8,0.34
2013-8-4,82.6,74.9,68.9,73.2,69.3,65.2,100,84,60,30.05,29.96,5,0,5,0.00
2013-8-5,74.0,70.4,66.8,70.1,66.6,63.4,97,88,73,30.03,29.87,8,0,8,0.04
2013-8-6,81.1,75.4,70.8,76.8,72.9,69.6,100,92,79,29.92,29.82,9,0,9,0.03
2013-8-7,86.5,77.6,72.5,79.7,74.6,70.7,100,91,75,29.90,29.80,13,0,13,0.44
2013-8-8,85.9,78.6,73.3,79.7,75.3,71.8,100,90,76,29.89,29.82,13,0,14,0.03
2013-8-9,89.3,80.7,74.0,79.4,75.8,72.9,100,86,67,29.95,29.85,6,0,6,0.00
2013-8-10,84.1,77.3,73.3,74.5,73.2,70.6,99,88,67,30.06,29.94,8,0,8,0.01
2013-8-11,83.4,77.4,72.1,77.0,74.3,71.8,100,91,76,30.06,29.97,5,0,5,0.09
2013-8-12,82.6,75.5,71.3,78.4,73.9,70.5,100,95,81,30.01,29.86,9,0,9,1.59
2013-8-13,82.4,74.9,69.9,75.9,71.2,67.3,100,89,69,29.94,29.86,5,0,5,0.00
2013-8-14,75.1,68.1,59.5,67.3,59.3,55.7,91,75,54,30.04,29.94,6,0,6,0.00
2013-8-15,77.4,67.0,55.0,64.8,59.3,53.3,98,78,57,30.03,29.95,4,0,4,0.00
2013-8-16,77.2,70.1,63.7,68.9,65.1,59.4,93,84,71,30.02,29.94,7,0,7,0.01
2013-8-17,76.7,70.9,67.3,69.0,67.2,65.6,99,89,72,30.06,29.98,10,1,10,0.00
2013-8-18,78.1,70.6,64.8,69.3,66.5,64.1,99,87,71,30.09,30.00,6,0,6,0.00
2013-8-19,82.4,72.6,63.5,71.4,67.6,62.6,100,85,61,30.07,29.96,7,0,7,0.00
2013-8-20,87.0,76.2,65.5,75.5,70.2,64.3,100,83,61,30.05,29.97,7,0,7,0.00
2013-8-21,87.2,78.4,67.9,76.5,72.0,67.3,100,82,60,30.08,29.99,5,0,5,0.00
2013-8-22,88.0,79.2,68.8,76.5,73.0,68.2,100,82,61,30.07,29.95,9,0,9,0.00
2013-8-23,88.0,78.0,69.1,76.1,72.0,68.4,99,83,57,30.02,29.93,9,0,9,0.00
2013-8-24,87.4,78.1,68.4,73.8,70.8,67.5,99,80,57,30.10,29.99,12,0,12,0.00
2013-8-25,86.3,77.6,69.8,73.6,70.8,66.7,97,81,61,30.22,30.10,8,0,8,0.00
2013-8-26,85.1,76.3,66.9,71.7,69.0,65.6,99,80,58,30.21,30.07,6,0,6,0.00
2013-8-27,86.5,76.4,65.3,72.9,68.8,63.5,98,79,56,30.08,29.98,7,0,7,0.00
2013-8-28,89.9,78.4,66.1,73.8,70.3,65.2,100,79,52,30.01,29.94,7,0,7,0.00
2013-8-29,93.2,81.1,69.4,76.7,72.5,68.4,99,78,51,29.98,29.89,7,0,7,0.00
2013-8-30,92.9,81.9,70.9,77.3,73.2,70.3,100,78,50,29.93,29.81,6,0,6,0.00
2013-8-31,93.8,82.6,72.3,76.6,73.5,70.8,98,76,52,29.86,29.74,5,0,5,0.00
2013-9-1,77.4,73.1,67.8,74.6,71.1,66.7,100,94,85,29.87,29.72,16,0,16,1.17
2013-9-2,87.8,77.0,68.6,77.6,72.7,68.3,100,88,66,29.85,29.77,7,0,7,0.00
2013-9-3,84.5,74.8,65.0,71.0,66.7,63.2,100,78,50,29.97,29.84,4,0,4,0.00
2013-9-4,82.2,72.3,62.6,68.5,63.9,61.0,99,77,51,30.08,29.96,9,0,9,0.00
2013-9-5,82.6,71.1,59.3,69.2,63.8,58.2,100,80,54,30.12,30.05,8,0,8,0.00
2013-9-6,85.3,73.8,62.0,70.4,65.8,61.1,100,78,47,30.10,29.99,9,0,9,0.00
2013-9-7,88.8,76.3,62.1,72.9,67.9,61.0,100,78,51,30.02,29.91,7,0,7,0.00
2013-9-8,91.0,78.7,67.1,74.5,70.7,66.2,100,79,50,29.94,29.85,6,0,6,0.00
2013-9-9,90.5,79.7,72.1,75.5,72.9,70.6,98,81,56,29.98,29.88,11,0,11,0.06
2013-9-10,86.1,77.6,72.3,79.7,73.1,70.4,98,87,65,30.09,29.96,11,1,11,0.09
2013-9-11,87.0,76.9,70.1,76.5,72.8,69.5,99,88,66,30.12,29.99,6,0,6,0.00
2013-9-12,89.5,77.0,70.4,75.4,71.9,69.8,99,86,57,30.00,29.86,7,0,7,0.04
2013-9-13,77.4,69.1,60.1,70.3,59.6,52.2,99,74,43,29.97,29.89,6,0,6,0.00
2013-9-14,72.0,61.5,48.8,56.1,52.1,46.9,98,73,50,30.06,29.96,12,0,12,0.00
2013-9-15,80.1,65.1,49.5,62.4,55.3,47.8,99,74,42,30.05,30.00,7,0,7,0.00
2013-9-16,83.4,69.3,56.9,67.8,62.1,55.6,100,80,49,30.11,30.02,4,0,4,0.00
2013-9-17,82.0,72.6,63.7,68.7,65.7,62.8,99,81,59,30.12,30.01,7,0,8,0.00
2013-9-18,80.9,73.0,66.8,71.2,68.3,64.4,97,86,71,30.08,29.98,6,0,8,0.00
2013-9-19,85.5,75.2,67.4,71.2,68.9,66.8,99,82,59,30.06,29.91,9,0,9,0.00
2013-9-20,84.3,73.8,67.6,73.7,69.1,64.9,99,86,61,29.93,29.73,8,0,8,1.55
2013-9-21,73.2,65.8,55.4,67.7,59.1,52.8,99,81,51,29.84,29.72,4,0,5,0.09
2013-9-22,74.2,62.3,51.0,59.0,54.1,50.2,100,77,49,29.91,29.82,7,0,7,0.00
2013-9-23,76.7,64.0,50.4,61.6,56.2,48.8,99,78,51,29.94,29.86,9,0,9,0.00
2013-9-24,78.5,66.9,56.3,69.5,63.4,54.5,100,89,68,29.90,29.76,11,1,11,2.25
2013-9-25,79.0,69.7,63.9,71.5,66.1,61.9,100,89,67,29.80,29.73,8,0,8,0.01
2013-9-26,78.8,68.2,60.1,69.9,63.7,58.8,100,87,64,29.95,29.80,9,0,9,0.00
2013-9-27,81.1,69.0,56.7,66.3,61.9,55.3,100,80,53,30.05,29.95,8,0,8,0.00
2013-9-28,77.7,68.8,60.1,62.8,59.9,54.4,96,76,46,30.09,29.99,13,0,13,0.00
2013-9-29,63.9,62.9,61.3,63.4,60.9,58.4,100,93,86,30.01,29.92,11,0,11,0.76
2013-9-30,70.1,66.0,63.4,64.6,63.7,62.4,100,93,79,29.97,29.90,15,0,15,0.00
2013-10-1,79.8,70.5,62.6,71.5,67.3,62.0,100,90,73,30.02,29.93,6,0,7,0.12
2013-10-2,80.7,72.5,66.1,73.9,68.7,65.5,100,89,70,30.04,29.98,4,0,4,0.00
2013-10-3,81.8,73.8,67.3,72.4,67.3,64.5,100,82,57,30.01,29.91,11,0,11,0.01
2013-10-4,83.2,73.4,65.8,72.0,68.6,65.1,99,86,66,30.02,29.93,11,0,11,0.00
2013-10-5,84.9,75.6,69.9,74.8,71.1,68.3,96,87,63,29.97,29.78,8,0,8,0.14
2013-10-6,73.3,62.1,53.1,70.9,58.0,48.5,99,87,70,29.91,29.76,8,0,8,2.18
2013-10-7,66.3,55.4,45.2,52.7,48.9,43.9,99,80,56,30.07,29.88,6,0,6,0.00
2013-10-8,68.8,56.9,44.9,53.5,49.3,44.1,100,78,49,30.12,30.03,11,0,11,0.00
2013-10-9,76.5,63.8,51.1,64.6,57.9,48.9,98,83,64,30.11,30.03,9,0,9,0.00
2013-10-10,77.6,66.9,58.4,68.6,61.5,57.0,100,84,60,30.10,29.96,5,0,5,0.00
2013-10-11,79.2,66.2,55.0,65.1,58.8,53.6,100,79,47,30.02,29.92,5,0,5,0.00
2013-10-12,77.4,65.8,54.5,69.9,61.8,53.4,100,88,68,30.08,29.94,7,0,7,0.01
2013-10-13,76.7,67.1,59.6,68.4,62.2,54.1,100,85,66,30.20,30.07,4,0,5,0.00
2013-10-14,77.2,65.5,52.3,64.2,57.2,48.9,92,76,51,30.19,30.03,9,0,9,0.00
2013-10-15,72.1,67.1,64.5,66.6,63.6,61.5,99,89,74,30.03,29.89,11,1,11,0.06
2013-10-16,65.3,60.5,56.2,65.3,60.2,55.4,100,99,97,29.95,29.88,8,0,8,0.29
2013-10-17,63.5,56.5,47.6,57.0,52.4,45.2,100,87,62,29.97,29.87,7,0,7,0.06
2013-10-18,67.3,54.4,42.2,55.8,47.9,40.9,100,81,52,30.03,29.90,7,0,7,0.00
2013-10-19,53.8,50.1,39.8,51.9,46.3,37.2,94,87,71,30.02,29.84,10,0,10,0.11
2013-10-20,64.2,48.7,36.3,49.5,41.0,35.3,100,78,44,30.07,29.96,7,0,7,0.00
2013-10-21,68.4,53.6,39.1,53.1,46.0,37.5,99,78,45,30.02,29.92,11,0,11,0.04
2013-10-22,62.7,53.9,47.6,53.1,46.1,40.8,93,76,47,30.01,29.82,10,0,10,0.01
2013-10-23,53.9,47.2,42.1,45.2,38.9,35.0,91,74,50,30.08,29.84,11,0,11,0.00
2013-10-24,56.2,46.7,35.5,45.8,39.2,31.5,93,77,51,30.33,30.07,9,0,9,0.00
2013-10-25,50.4,38.6,28.5,35.9,29.8,26.5,96,73,41,30.48,30.28,8,0,8,0.00
2013-10-26,59.3,45.9,29.7,47.5,37.0,27.4,96,73,47,30.29,30.04,10,0,10,0.03
2013-10-27,57.5,52.3,50.1,52.1,48.7,44.5,92,88,78,30.07,30.01,2,0,2,0.00
2013-10-28,68.8,60.7,51.0,59.3,55.1,48.5,99,83,62,30.19,30.05,6,0,6,0.02
2013-10-29,68.4,58.5,46.4,63.7,55.7,44.6,100,91,79,30.21,30.07,8,0,8,0.00
2013-10-30,74.6,67.9,62.4,65.2,61.4,58.5,92,80,70,30.13,29.95,8,1,8,0.00
2013-10-31,68.1,65.4,59.6,67.9,63.2,56.4,100,93,77,29.95,29.48,22,3,22,0.70
2013-11-1,70.9,58.8,48.5,56.6,49.0,41.7,99,74,35,29.80,29.65,15,1,15,0.00
2013-11-2,60.9,51.1,41.1,47.2,43.2,37.6,94,76,53,30.14,29.80,12,1,12,0.00
2013-11-3,58.4,44.7,32.9,46.6,36.2,31.1,99,75,38,30.27,30.13,12,1,12,0.00
2013-11-4,63.4,51.6,39.3,46.5,42.1,35.7,90,72,47,30.27,30.17,13,1,13,0.00
2013-11-5,70.3,58.7,48.8,52.5,45.3,39.8,88,62,46,30.29,30.13,14,2,14,0.00
2013-11-6,64.5,57.7,44.6,59.8,51.7,42.9,98,81,61,30.15,29.96,13,2,13,0.01
2013-11-7,54.4,43.8,33.7,42.9,34.8,28.5,95,74,39,30.32,30.14,7,1,7,0.00
2013-11-8,58.4,43.4,29.8,41.7,33.5,27.8,98,72,37,30.36,30.18,11,1,11,0.00
2013-11-9,60.4,47.0,34.7,41.1,36.5,31.2,90,69,39,30.23,30.13,10,1,10,0.00
2013-11-10,63.9,49.5,37.2,47.0,37.3,32.6,97,67,34,30.32,30.19,7,0,7,0.00
2013-11-11,68.6,50.5,31.5,44.0,34.7,28.2,98,61,24,30.26,30.10,7,0,7,0.00
2013-11-12,53.6,39.0,27.5,44.2,28.5,20.2,90,67,43,30.61,30.15,14,2,14,0.01
2013-11-13,45.1,33.0,23.5,26.4,22.1,18.8,91,67,35,30.68,30.39,10,0,10,0.00
2013-11-14,57.0,39.5,23.9,28.2,21.9,18.0,86,55,23,30.40,30.13,12,1,12,0.00
2013-11-15,53.9,45.9,33.2,51.0,40.2,22.3,92,81,57,30.14,29.99,8,0,8,0.01
2013-11-16,64.8,59.1,53.3,62.6,57.4,51.0,98,94,89,30.02,29.82,18,2,18,0.01
2013-11-17,70.3,65.3,55.4,68.7,62.1,39.8,100,90,52,29.90,29.62,19,4,19,0.15
2013-11-18,62.0,50.4,39.5,45.2,36.8,28.5,96,61,36,30.22,29.89,10,1,10,0.00
2013-11-19,49.8,42.2,35.9,32.8,29.6,26.1,77,62,40,30.26,30.13,7,0,7,0.00
2013-11-20,62.4,46.8,30.1,36.3,32.4,26.4,90,61,33,30.17,30.06,16,1,16,0.00
2013-11-21,66.6,56.1,46.8,57.2,48.7,36.4,98,77,58,30.18,30.09,16,1,16,0.20
2013-11-22,59.3,53.1,43.3,59.0,51.3,39.1,99,94,85,30.33,30.12,11,1,11,0.16
2013-11-23,44.6,38.9,26.4,39.4,28.2,15.4,87,67,31,30.54,30.30,12,2,12,0.00
2013-11-24,33.5,27.6,20.6,17.5,14.9,11.1,74,59,41,30.64,30.41,9,1,9,0.00
2013-11-25,41.9,33.9,29.7,33.0,23.8,13.5,95,69,41,30.41,30.11,9,1,9,0.13
2013-11-26,36.9,35.4,33.5,36.3,33.4,25.4,98,93,70,30.12,29.89,11,1,11,0.07
2013-11-27,33.7,25.9,17.7,25.6,13.7,9.3,85,61,40,30.35,30.02,11,1,11,0.00
2013-11-28,44.2,28.9,16.2,23.0,17.4,12.8,87,66,35,30.45,30.33,10,1,10,0.00
2013-11-29,51.9,34.8,22.1,29.0,24.9,19.4,91,70,37,30.54,30.40,8,0,8,0.00
2013-11-30,57.6,41.5,25.8,32.9,26.8,21.3,94,61,25,30.41,30.17,14,1,14,0.00
2013-12-1,55.4,49.7,46.1,40.5,35.9,29.1,74,59,50,30.17,29.88,8,1,8,0.00
2013-12-2,59.3,52.6,47.0,50.7,46.8,39.7,91,81,72,29.88,29.66,9,0,9,0.00
2013-12-3,63.9,55.8,49.9,55.4,52.6,49.2,99,90,70,29.72,29.65,11,1,11,0.00
2013-12-4,74.0,66.4,55.7,62.4,60.6,55.4,100,83,61,29.77,29.64,18,3,18,0.00
2013-12-5,67.6,49.2,33.1,65.0,46.7,32.1,96,91,83,30.08,29.76,10,2,10,0.54
2013-12-6,33.2,30.7,26.3,32.7,29.8,24.8,98,96,94,30.39,30.02,4,1,7,0.38
2013-12-7,27.3,25.3,22.4,25.5,23.1,20.2,95,91,89,30.54,30.27,0,0,0,0.00
2013-12-8,35.5,32.5,27.0,35.2,32.0,25.2,99,98,93,30.30,30.00,7,0,7,0.15
2013-12-9,33.4,31.5,29.7,33.2,28.1,22.1,99,88,73,30.24,30.07,9,1,9,0.01
2013-12-10,38.5,29.4,22.5,26.7,22.5,18.3,95,76,59,30.37,30.14,11,1,11,0.00
2013-12-11,43.1,29.7,19.1,31.4,24.0,17.4,96,81,54,30.54,30.34,11,1,11,0.00
2013-12-12,37.2,26.1,16.4,20.4,16.6,12.5,89,70,38,30.58,30.35,8,0,8,0.00
2013-12-13,45.1,33.1,18.3,34.3,21.8,15.1,91,67,36,30.35,29.91,11,1,11,0.16
2013-12-14,44.1,38.9,34.3,43.8,37.2,30.4,99,94,86,30.03,29.76,18,2,18,0.50
2013-12-15,35.0,32.2,29.0,30.4,27.6,25.6,91,83,76,30.21,30.03,10,1,10,0.00
2013-12-16,56.3,41.9,29.7,38.1,33.0,27.4,93,73,47,30.14,30.03,13,2,13,0.00
2013-12-17,54.2,40.9,27.8,39.7,32.2,25.2,91,72,44,30.25,30.06,14,0,14,0.00
2013-12-18,53.3,38.8,22.7,31.7,25.9,20.7,95,64,31,30.32,30.08,9,1,9,0.00
2013-12-19,60.7,51.9,41.6,48.9,41.9,31.6,78,69,59,30.12,29.92,15,3,15,0.00
2013-12-20,63.5,60.1,56.6,61.5,55.8,47.2,96,86,70,29.92,29.77,16,3,16,0.23
2013-12-21,73.9,67.1,60.5,66.2,62.5,59.6,100,86,70,29.78,29.45,31,5,31,1.02
2013-12-22,60.4,49.8,37.9,60.4,47.6,34.1,100,92,80,30.14,29.58,16,1,16,0.00
2013-12-23,37.8,33.3,26.9,34.0,27.1,22.8,88,78,63,30.44,30.13,9,1,9,0.00
2013-12-24,29.7,25.4,20.8,24.0,16.1,8.1,87,68,42,30.57,30.40,7,0,7,0.00
2013-12-25,45.4,30.9,17.5,25.0,18.7,13.2,87,63,33,30.41,30.26,8,1,8,0.00
2013-12-26,44.6,32.6,23.6,30.9,24.8,21.1,93,75,44,30.40,30.28,5,0,6,0.00
2013-12-27,52.9,34.9,21.4,30.6,25.9,19.4,96,73,38,30.43,30.30,7,0,7,0.00
2013-12-28,46.0,36.3,26.0,38.9,31.4,23.8,96,83,60,30.30,29.90,8,0,8,0.12
2013-12-29,54.1,42.3,32.1,43.2,37.9,26.7,99,85,64,30.13,29.88,9,1,9,0.15
2013-12-30,32.4,29.5,23.6,26.8,23.8,19.7,85,79,74,30.29,30.12,6,0,6,0.00
2013-12-31,44.3,30.9,19.7,27.8,23.0,17.0,92,74,49,30.42,30.28,5,0,7,0.00
2014-1-1,51.4,37.9,22.9,40.3,28.8,20.0,92,72,42,30.29,29.89,11,1,11,0.02
2014-1-2,44.6,30.6,18.6,43.3,25.5,11.3,98,81,65,30.37,29.83,15,2,15,0.10